Tracking 30995 objects as of 7-Jul-2025
HD Live streaming from Space Station
objects crossing your sky now

PEGASUS DEB

Track PEGASUS DEB now!
10-day predictions


NORAD ID: 39928
Int'l Code: 1994-029AGB
Perigee: 478.3 km
Apogee: 633.7 km
Inclination: 81.0 °
Period: 95.6 minutes
Semi major axis: 6927 km
RCS: 0.0163 m2 (small)
Launch date: May 19, 1994
Source: United States (US)
Launch site: AIR FORCE WESTERN TEST RANGE (AFWTR)

Note: This is SATELLITE DEBRIS
Your satellite tracking list
Your tracking list is empty




NASA's NSSDC Master Catalog

Two Line Element Set (TLE):
1 39928U 94029AGB 25185.87220497  .00044066  00000-0  26192-2 0  9997
2 39928  81.0027 229.0689 0112111 151.8682 208.8662 15.05859105 78359
Source of the keplerian elements: AFSPC